Location: Newark
(52.3500°N, 175.9667°E)
Time: 21:37:10
(UTC+00:00)

Altair - Pass Details

Date: 25 April 2021
Orbit: 1501 x 1683 km, 47.2° (Epoch: 05 May)

Event Time Altitude Azimuth Distance (km) Brightness Sun altitude
Rises 22:54:15 0° 286° (WNW) 4,793 9.8 48.0°
Reaches altitude 10° 22:57:53 10° 276° (W) 3,777 9.4 48.3°
Maximum altitude 23:05:34 29° 222° (SW) 2,534 9.3 48.8°
Drops below altitude 10° 23:13:05 10° 166° (SSE) 3,667 10.4 49.3°
Sets 23:16:34 0° 156° (SSE) 4,632 10.7 49.5°
